Startpagina
METAR-TAF:

METAR-TAF

Vliegvelden :

Reims, Frankrijk

breedte: 49-12-31N, lengte: 004-09-24E, hoogte: 95 m

Actueel weer

Dit bericht is 12 minuten geleden gemaakt, om 06:30 UTC
Wind 3 kt uit variabele richting
Temperatuur 6°C
Vochtigheid 93%
Druk 1020 hPa
Zicht 10 km of meer
Geheel bewolkt op 1000 ft

METAR: LFQA 190630Z AUTO VRB03KT 9999 OVC010 06/05 Q1020

Tijdstip: 07:42 (06:42 UTC)


TAF: ontbreekt

Waarnemingen en weersverwachtingen van meer dan 4000 vliegvelden (METAR en TAF).

De beschikbare stations zijn de gele en rode punten op de kaart.

Ga met uw muis naar het station om de naam te zien.

Klik dan om waarnemingen en weersverwachtingen te zien.

kaart wijzigen: klik op de groene knoppen met een zwart kruis om in te zoomen, op de groene knop met een streepje om uit te zoomen of op de groene pijlen voor aangrenzende kaarten.


METAR-TAF: